Location: ???? ????
(31.2831°N, 45.5190°E)
Time: 11:49:54
(UTC+00:00)

X-37B - Pass Details

Date: 30 September 2021
Orbit: 385 x 389 km, 45.0° (Epoch: 13 October)

Event Time Altitude Azimuth Distance (km) Brightness Sun altitude
Exits shadow 02:07:05 - 324° (NW) 2,055 3.9 -10.2°
Reaches altitude 10° 02:09:37 10° 355° (N) 1,412 3.4 -9.7°
Maximum altitude 02:10:51 12° 18° (NNE) 1,313 3.5 -9.4°
Drops below altitude 10° 02:12:05 10° 41° (NE) 1,411 4.1 -9.1°
Sets 02:15:16 0° 75° (ENE) 2,265 6.4 -8.5°
